This is the latest recevied weather packets stored in our database for station/object HA3YA-WX. If no packets are shown the sender has not sent any weather packets the latest 10 day(s).
| Time | Temp. | Humidity | Pressure | Rain* | Wind** | Luminosity | Snow |
|---|---|---|---|---|---|---|---|
| 1776987589 | 12.78° C | 48% | 1003.5 hPa | - | - | - | - |
| 1776986989 | 12.78° C | 48% | 1003.5 hPa | - | - | - | - |
| 1776986388 | 12.78° C | 47% | 1003.5 hPa | - | - | - | - |
| 1776985789 | 12.78° C | 46% | 1003 hPa | - | - | - | - |
| 1776985189 | 12.78° C | 46% | 1003 hPa | - | - | - | - |
| 1776984589 | 13.33° C | 46% | 1003.3 hPa | - | - | - | - |
| 1776983988 | 13.33° C | 46% | 1003.3 hPa | - | - | - | - |
| 1776983389 | 13.33° C | 46% | 1003.3 hPa | - | - | - | - |
| 1776982788 | 13.33° C | 46% | 1003 hPa | - | - | - | - |
| 1776982189 | 13.33° C | 45% | 1003 hPa | - | - | - | - |
| 1776981589 | 13.89° C | 44% | 1003 hPa | - | - | - | - |
| 1776980989 | 14.44° C | 44% | 1003 hPa | - | - | - | - |
| 1776980388 | 14.44° C | 44% | 1003 hPa | - | - | - | - |
| 1776979788 | 14.44° C | 43% | 1003 hPa | - | - | - | - |
| 1776979188 | 14.44° C | 44% | 1002 hPa | - | - | - | - |
| 1776978588 | 13.89° C | 44% | 1002 hPa | - | - | - | - |
| 1776977989 | 13.89° C | 45% | 1002 hPa | - | - | - | - |
| 1776977389 | 13.33° C | 46% | 1002 hPa | - | - | - | - |
| 1776976789 | 12.78° C | 46% | 1002 hPa | - | - | - | - |
| 1776976189 | 12.78° C | 46% | 1002.7 hPa | - | - | - | - |
| 1776975588 | 12.78° C | 46% | 1002.5 hPa | - | - | - | - |
| 1776974989 | 12.78° C | 45% | 1002.5 hPa | - | - | - | - |
| 1776974389 | 13.33° C | 43% | 1002.5 hPa | - | - | - | - |
| 1776973789 | 13.33° C | 42% | 1002.5 hPa | - | - | - | - |
| 1776973188 | 13.89° C | 42% | 1002.5 hPa | - | - | - | - |
* Rain since midnight (hover to see other rain measurements)
** Current wind speed in m/s (hover to see current wind gust speed)